Location: Civís
(42.4648°N, 1.4232°E)
Time: 17:34:32
(UTC+00:00)

Cosmos 1441 Rocket - Pass Details

Date: 23 November 2025
Orbit: 425 x 449 km, 81.1° (Epoch: 04 December)

Event Time Altitude Azimuth Distance (km) Brightness Sun altitude
Rises 06:11:53 0° 236° (WSW) 2,382 6.2 -8.1°
Reaches altitude 10° 06:15:19 10° 275° (W) 1,520 5.0 -7.5°
Maximum altitude 06:16:15 11° 292° (WNW) 1,466 4.8 -7.4°
Drops below altitude 10° 06:17:12 10° 308° (NW) 1,523 5.0 -7.2°
Sets 06:20:39 0° 347° (NNW) 2,396 6.2 -6.6°
